Meath Environmental Platform

Observations for Trim Market St

Time AQI Temp °C Hum % Pres Pa CO μg/m³ H₂S μg/m³ NO μg/m³ NO₂ μg/m³ O₃ μg/m³ SO₂ μg/m³ PM1 μg/m³ PM2.5 μg/m³ PM10 μg/m³
Tuesday 25 August 2026
18:10 3 20.9 60 57,657 0 0 0.96 14.99 61.61 0 4.28 5.52 7.53
18:09 3 20.9 60 57,658 0.02 0 0.9 17.17 62.43 0 4.99 7.02 9.58
18:08 3 20.9 60 57,660 0.05 0 0.94 17.78 63.16 0 4.28 6.52 9.59
17:58 3 21 60 57,675 0.01 0 1.12 14.94 63.27 0 4.28 8.54 12.34
17:57 3 21 60 57,673 0 0 1.21 16.07 61.54 0 4.99 7.53 10.96
17:56 3 21 60 57,673 0.01 0 1.19 23.66 61.96 0 4.28 7.54 10.28
17:55 3 21.1 60 57,672 0 0 1.06 16.6 61.47 0 4.28 6.04 8.9
17:54 3 21.1 60 57,669 0.01 0 1.09 22.07 61.24 0 5.7 8.54 14.4
17:53 3 21.1 60 57,666 0.06 0 1.12 18.04 61.65 0 4.28 6.54 10.28
17:52 3 21.1 60 57,663 0.02 0 1.04 21.7 59.87 0 4.99 6.54 13.03
17:51 3 21.1 60 57,660 0 0 1.1 18.66 61.1 0 5.7 7.53 10.28
17:50 3 21.2 60 57,654 0 0 1.16 21.25 60.9 0 4.28 7.53 10.96
17:49 3 21.2 60 57,647 0.01 0 1.17 18.3 60.77 0 6.41 7.53 10.27
17:48 3 21.2 60 57,640 0 0 1.2 18.6 61.34 0 5.7 7.53 10.27
17:47 3 21.2 60 57,633 0.01 0 1.22 25.32 61.46 0 4.28 7.03 10.96
17:46 3 21.2 60 57,630 0.02 0 1.18 23.86 63.65 0 4.99 8.53 11.65
17:44 3 21.2 60 57,627 0.03 0 1.39 25.33 58.42 0 4.99 7.03 9.59
17:43 3 21.2 60 57,624 0.02 0 1.37 21.26 62.76 0 3.56 6.03 8.21
17:42 3 21.2 60 57,623 0.06 0 1.35 33.37 60.59 0 4.99 7.03 9.59
17:41 3 21.2 60 57,623 0.2 0.91 1.26 61.9 29.95 0 4.28 8.03 11.65